TimeCDT,TemperatureF,Dew PointF,Humidity,Sea Level PressureIn,VisibilityMPH,Wind Direction,Wind SpeedMPH,Gust SpeedMPH,PrecipitationIn,Events,Conditions,WindDirDegrees,DateUTC
12:54 AM,35.1,25.0,67,30.05,10.0,Calm,Calm,-,N/A,,Clear,0,2011-10-30 05:54:00
1:54 AM,34.0,25.0,70,30.04,10.0,SE,4.6,-,N/A,,Partly Cloudy,130,2011-10-30 06:54:00
2:54 AM,33.1,26.1,75,30.03,10.0,SE,5.8,-,N/A,,Overcast,140,2011-10-30 07:54:00
3:54 AM,37.0,26.1,65,30.01,10.0,SSE,6.9,-,N/A,,Overcast,150,2011-10-30 08:54:00
4:54 AM,37.9,25.0,60,29.99,10.0,SE,8.1,-,N/A,,Overcast,140,2011-10-30 09:54:00
5:54 AM,39.0,25.0,57,29.98,10.0,SE,8.1,-,N/A,,Overcast,130,2011-10-30 10:54:00
7:54 AM,39.0,27.0,62,29.96,10.0,ESE,9.2,-,0.00,,Overcast,120,2011-10-30 12:54:00
8:54 AM,39.9,27.0,60,29.95,10.0,ESE,11.5,-,N/A,,Overcast,120,2011-10-30 13:54:00
9:54 AM,42.1,27.0,55,29.94,10.0,SE,11.5,-,N/A,,Overcast,140,2011-10-30 14:54:00
10:54 AM,43.0,27.0,53,29.91,10.0,SSE,12.7,-,N/A,,Overcast,150,2011-10-30 15:54:00
11:54 AM,44.1,28.9,55,29.88,10.0,SE,10.4,-,0.00,Rain,Light Rain,140,2011-10-30 16:54:00
12:54 PM,39.9,33.1,77,29.86,4.0,SE,11.5,-,0.00,Rain,Light Rain,130,2011-10-30 17:54:00
1:54 PM,39.0,35.1,86,29.86,7.0,ESE,11.5,-,0.02,Rain,Light Rain,120,2011-10-30 18:54:00
2:54 PM,39.0,37.0,93,29.85,4.0,ESE,10.4,-,0.00,Rain,Light Rain,120,2011-10-30 19:54:00
3:54 PM,39.0,37.0,93,29.84,4.0,ESE,5.8,-,0.02,Rain,Light Rain,110,2011-10-30 20:54:00
4:12 PM,39.2,37.4,93,29.81,6.0,ESE,5.8,-,0.00,Rain,Light Rain,120,2011-10-30 21:12:00
4:21 PM,39.2,37.4,93,29.81,5.0,ESE,5.8,-,0.00,Rain,Light Rain,120,2011-10-30 21:21:00
4:28 PM,39.2,37.4,93,29.81,5.0,ESE,4.6,-,0.00,Rain,Light Rain,110,2011-10-30 21:28:00
4:44 PM,39.2,37.4,93,29.81,6.0,SE,4.6,-,0.00,Rain,Light Rain,130,2011-10-30 21:44:00
4:54 PM,39.9,37.0,89,29.85,6.0,SSE,3.5,-,0.00,Rain,Light Rain,150,2011-10-30 21:54:00
5:17 PM,39.2,37.4,93,29.81,5.0,Calm,Calm,-,0.00,Rain,Light Rain,0,2011-10-30 22:17:00
5:28 PM,39.2,37.4,93,29.81,4.0,Calm,Calm,-,0.00,Rain,Light Rain,0,2011-10-30 22:28:00
6:07 PM,39.2,37.4,93,29.82,7.0,Calm,Calm,-,0.00,Rain,Light Rain,0,2011-10-30 23:07:00
6:16 PM,39.2,37.4,93,29.82,7.0,Calm,Calm,-,0.00,,Overcast,0,2011-10-30 23:16:00
6:34 PM,39.2,37.4,93,29.83,5.0,Calm,Calm,-,0.00,Rain,Light Rain,0,2011-10-30 23:34:00
6:51 PM,39.2,37.4,93,29.83,5.0,Calm,Calm,-,0.00,Rain,Light Rain,0,2011-10-30 23:51:00
6:54 PM,39.9,37.9,93,29.87,5.0,Calm,Calm,-,0.00,Rain,Light Rain,0,2011-10-30 23:54:00
7:54 PM,39.9,37.9,93,29.88,5.0,Calm,Calm,-,0.00,Rain,Light Rain,0,2011-10-31 00:54:00
8:29 PM,39.2,37.4,93,29.84,3.0,Calm,Calm,-,0.00,Rain,Light Rain,0,2011-10-31 01:29:00
8:36 PM,39.2,37.4,93,29.84,3.0,NW,3.5,-,0.00,Rain,Light Rain,310,2011-10-31 01:36:00
8:54 PM,39.0,37.0,93,29.88,5.0,West,4.6,-,0.00,Rain,Light Rain,270,2011-10-31 01:54:00
9:51 PM,39.2,37.4,93,29.86,6.0,WNW,4.6,-,0.00,,Overcast,300,2011-10-31 02:51:00
9:54 PM,39.0,37.0,93,29.89,7.0,WNW,5.8,-,0.00,,Overcast,300,2011-10-31 02:54:00
10:25 PM,39.2,37.4,93,29.87,6.0,WNW,4.6,-,N/A,,Overcast,290,2011-10-31 03:25:00
10:36 PM,39.2,37.4,93,29.87,5.0,WNW,3.5,-,N/A,,Overcast,290,2011-10-31 03:36:00
10:54 PM,39.0,37.0,93,29.91,5.0,WNW,3.5,-,N/A,,Overcast,300,2011-10-31 03:54:00
11:45 PM,37.4,35.6,93,29.87,7.0,WNW,5.8,-,N/A,,Overcast,300,2011-10-31 04:45:00
11:54 PM,37.9,36.0,93,29.91,7.0,WNW,4.6,-,N/A,,Overcast,300,2011-10-31 04:54:00